Zurück zum Katalog

STARLINK-36897

AktivKommunikationVLEO
NORAD 67951·PAYLOAD·🇺🇸 United States

Gestartet Feb 24, 2026 von Vandenberg Space Force Base

Loading…

Nächste Überflüge (nächste 24 Stunden)

TLE

AktuellSource: CelesTrak SupGP

Epoche: Sep 14, 2026, 21:33 UTC

1 67951C 26037V   26257.89840278  .00012257  00000+0  44397-3 0  2577
2 67951  43.0036 202.5093 0001397 260.3008 104.3121 15.27569752    18

Verfolge STARLINK-36897 in Echtzeit mit AllMySat

Download on the App Store